Location: Colle San Luigi
(43.5500°N, 13.4167°E)
Time: 19:57:01
(UTC+00:00)

Terra - Pass Details

Date: 09 April 2020
Orbit: 701 x 703 km, 98.2° (Epoch: 01 June)

Event Time Altitude Azimuth Distance (km) Brightness Sun altitude
Exits shadow 20:29:29 33° 35° (NE) 1,171 3.0 -27.2°
Drops below altitude 10° 20:32:41 10° 1° (N) 2,181 4.9 -27.6°
Sets 20:35:04 0° 354° (N) 3,104 5.9 -27.9°
